Simultaneous Nadir Overpasses (SNOs) Predictions

Prediction of SNOs between AQUA and GOES-15 Satellite Orbit:

Table of predicted SNOs for the next 14.0 days since TLE Epoch: 9/30/2016
Index Date Time (AQUA) AQUA Lat,Lon GOES-15 Lat,Lon Distance(km) Time Diff (sec)
1 10/01/2016 10:37:29 0.30,-135.55 0.26,-135.34 24.17 80
2 10/03/2016 10:25:18 -0.32,-132.60 0.26,-135.30 307.42 80
3 10/03/2016 22:46:41 -0.80,-137.79 -0.25,-135.27 287.03 80
4 10/05/2016 22:34:31 -0.16,-134.83 -0.25,-135.22 43.79 80
5 10/07/2016 22:22:20 0.48,-131.88 -0.25,-135.16 374.02 80
6 10/08/2016 10:43:35 0.60,-137.04 0.23,-135.18 211.66 80
7 10/10/2016 10:31:23 0.00,-134.08 0.22,-135.11 117.62 80
8 10/10/2016 22:52:47 -1.11,-139.27 -0.20,-135.06 478.40 80
9 10/12/2016 10:19:11 -0.60,-131.12 0.22,-135.04 446.37 80
10 10/12/2016 22:40:35 -0.51,-136.31 -0.20,-135.00 149.70 80




NCC Satellite Simultaneous Nadir Overpasses (SNOs) Prediction Service
